Regional Weather Roundup
Issued by NWS Sterling, VA

Home | Current Version | Previous Version | Text Only | Print | Product List | Glossary On
Versions: 1 2 3 4 5 6 7 8 9 10 11 12 13 14 15 16 17 18 19 20 21 22 23 24 25 26 27
000
ASUS41 KLWX 230110
RWRLWX

REGIONAL WEATHER ROUNDUP
NATIONAL WEATHER SERVICE BALTIMORE MD/WASHINGTON DC
900 PM EDT WED OCT 22 2014

Note: "FAIR" indicates few or no clouds below 12,000 feet
with no significant weather and/or obstructions to visibility.
 TC=TEMPERATURE CELSIUS

 * =Non NWS site. Station does not report precipitation (e.g. rain,
    snow, etc.), thunder, or fog.

DCZ001-MDZ009-015-VAZ040>042-051-053>054-230200-
WASHINGTON METRO

CITY           SKY/WX    TMP DP  RH WIND       PRES   REMARKS
WASHINGTON NAT CLOUDY    58  46  64 NW15      29.95R
DULLES         CLOUDY    53  44  71 NW14      29.97R
ANDREWS AFB    DRIZZLE   54  46  76 NW20G26   29.93R
FT BELVOIR     CLOUDY    56  45  66 NW17G30   29.95R
QUANTICO       PTCLDY    55  44  66 N16G28    29.96R
COLLEGE PARK*  CLOUDY    55  45  67 N12G21    29.94R
LEESBURG*      PTCLDY    54  46  76 N16       29.99R
MANASSAS*      CLEAR     54  45  71 NW18G28   29.97R
GAITHERSBURG*  CLOUDY    54  45  71 NW10G20   29.99R

$$

MDZ006>007-011-014-230200-
BALTIMORE METRO

CITY           SKY/WX    TMP DP  RH WIND       PRES   REMARKS
BWI AIRPORT    CLOUDY    54  45  71 NW14G21   29.93R
MD SCIENCE CTR   N/A     56  44  64 MISG      29.93R
MARTIN STATE   CLOUDY    55  48  76 NW12G23   29.92S
ANNAPOLIS      CLOUDY    56  48  74 NW16      29.91S
FORT MEADE*    CLOUDY    54  45  71 N8G16     29.96R

$$

MDZ012-015-019>023-230200-
MARYLAND EASTERN SHORE

CITY           SKY/WX    TMP DP  RH WIND       PRES   REMARKS
OCEAN CITY     LGT RAIN  53  51  93 N14G24    29.79S FOG
SALISBURY      LGT RAIN  56  50  80 NW17G26   29.83R
BAY BRIDGE AP* DRIZZLE   54  46  76 NW18G26   29.90S
CAMBRIDGE*     CLOUDY    55  48  76 NW17G30   29.86S VSB<1/4
EASTON*        PTCLDY    55  54  94 N20G28    29.91S

$$

MDZ017>025-230200-
SOUTHERN MARYLAND

CITY           SKY/WX    TMP DP  RH WIND       PRES   REMARKS
PATUXENT RIVER LGT RAIN  54  49  83 NW22G30   29.89S
ST INIGOES     CLOUDY    54  48  80 NW10G18   29.89S
LEONARDTOWN*   CLOUDY    52  48  87 NW8       29.92S

$$

MDZ003>005-230200-
NORTH CENTRAL MARYLAND

CITY           SKY/WX    TMP DP  RH WIND       PRES   REMARKS
FREDERICK*     CLOUDY    59  43  55 NW10      30.00R
HAGERSTOWN APT CLOUDY    51  41  68 NW9       30.02R
WESTMINSTER*   MIX PCPN  52  46  82 N10G20    29.96R

$$

MDZ501>502-230200-
WESTERN MARYLAND

CITY           SKY/WX    TMP DP  RH WIND       PRES   REMARKS
OAKLAND*       CLOUDY    39 N/A N/A NW8G18    30.11S
CUMBERLAND*    MOCLDY    52  41  66 N9G18     30.12S

$$

VAZ025>031-230200-
SHENANDOAH VALLEY

CITY           SKY/WX    TMP DP  RH WIND       PRES   REMARKS
WINCHESTER*    PTCLDY    52  37  58 NW17G24   30.03S
FRONT ROYAL*   CLOUDY    52  41  66 NW7G16    30.03S
LURAY*         CLOUDY    54  43  66 N3G18     30.04S
NEW MARKET*    CLOUDY    51  42  70 N7        30.06R
STAUNTON*      CLEAR     50  41  69 N9        30.07R
WAYNESBORO*    FAIR      48  40  73 NW8G17    30.04R

$$

WVZ021-048>050-054>055-230200-
EASTERN WEST VIRGINIA PANHANDLE

CITY           SKY/WX    TMP DP  RH WIND       PRES   REMARKS
MARTINSBURG    CLOUDY    53  40  61 NW15G23   30.03R
PETERSBURG*    CLOUDY    52  40  65 NW12      30.12R

$$

VAZ036>039-050-230200-
CENTRAL FOOTHILLS

CITY           SKY/WX    TMP DP  RH WIND       PRES   REMARKS
CHARLOTTESVILL CLEAR     54  41  61 NW13      29.99S
CULPEPER*      PTCLDY    54  43  66 N9        30.00R
ORANGE*        CLEAR     54  43  66 NW8       30.00R
GORDONSVILLE*  FAIR      52  43  72 NW7       29.98R
WARRENTON*     FAIR      53  48  84 NW9G18    29.98R

$$

VAZ055>057-230200-
NORTH AND CENTRAL PIEDMONT

CITY           SKY/WX    TMP DP  RH WIND       PRES   REMARKS
FREDERICKSBRG* MOCLDY    55  46  73 NW15G22   29.96R
STAFFORD*      PTCLDY    52  43  71 NW21G26   30.00R

$$

NCZ024-NYZ072-PAZ021-071-VAZ022-071-230200-
OTHER REGIONAL OBSERVATIONS

CITY           SKY/WX    TMP DP  RH WIND       PRES   REMARKS
NEW YORK CITY  RAIN      51  48  89 MISG      29.79F FOG
PHILADELPHIA   LGT RAIN  54  49  83 NW16      29.84S
PITTSBURGH     CLOUDY    48  41  76 N9        30.19R
ROANOKE        PTCLDY    52  38  58 W6        30.10R
RICHMOND       CLOUDY    56  45  66 NW18G26   29.95S
RALEIGH        PTCLDY    55  42  61 W5        30.01R

$$

ANZ530>537-230200-
MARINE OBSERVATIONS

STATION/POSITION TIME  TEMP    WIND        PRES
                       AIR SEA DIR/SP/G
                 (UTC) (F)     (DEG/KT/KT) (MB)
THOMAS PT LIGHT  0100   56 63  330/ 21/ 25 1013.1S
BALT KEY BRIDGE  0100   56     330/ 21/ 25 1012.6S
COVE POINT       0100   55     350/ 25/ 29 1012.0S
LEWISETTA        0100   56 61  340/ 19/ 28 1012.2S
SOLOMONS ISLAND  0100      64                N/A
PINEY POINT      0100          350/ 22/ 24   N/A

$$




USA.gov is the U.S. government's official web portal to all federal, state and local government web resources and services.